Thompson, Ohio, United States (44086)
Lat: 41.69N, Lon: 81.05W
Wx Zone: OHZ013
Local Info
Past Weather Observations for Sunday, August 30, 2015

NOTE: This archive is for the closest National Weather Service station to Thompson. Information may differ from the station used for current weather conditions.

Click here for Long-term Archive

Time Weather Temperature Dewpoint Humidity Pressure Winds Precip Visibility
23:53
Partly Cloudy
68°F / 20°C 66°F / 19°C 94% 30.06 in
(1018 mb)
S 5.8 mph
(S 9 kph)
- 7SM
22:53
Clear
68°F / 20°C 66°F / 19°C 94% 30.06 in
(1018 mb)
S 5.8 mph
(S 9 kph)
- 7SM
21:53
Clear
Fog And Mist
68°F / 20°C 66°F / 19°C 94% 30.06 in
(1018 mb)
Calm - 6SM
20:53
Clear
70°F / 21°C 66°F / 19°C 88% 30.09 in
(1019 mb)
Calm - 9SM
19:53
Mostly Cloudy
72°F / 22°C 70°F / 21°C 94% 30.06 in
(1018 mb)
Calm - 9SM
18:53
Clear
73°F / 23°C 70°F / 21°C 89% 30.06 in
(1018 mb)
Calm - 9SM
17:53
Mostly Cloudy
79°F / 26°C 68°F / 20°C 70% 30.06 in
(1018 mb)
Calm - 10SM
16:53
Clear
79°F / 26°C 70°F / 21°C 74% 30.06 in
(1018 mb)
W 3.5 mph
(W 6 kph)
- 10SM
15:53
Mostly Cloudy
81°F / 27°C 70°F / 21°C 70% 30.06 in
(1018 mb)
N 4.6 mph
(N 7 kph)
- 10SM
14:53
Mostly Cloudy
79°F / 26°C 68°F / 20°C 70% 30.09 in
(1019 mb)
NW 5.8 mph
(NW 9 kph)
- 10SM
13:53
Mostly Cloudy
79°F / 26°C 66°F / 19°C 65% 30.09 in
(1019 mb)
Calm - 10SM
12:53
Clear
77°F / 25°C 66°F / 19°C 69% 30.09 in
(1019 mb)
Variable 4.6 mph
(Variable 7 kph)
- 10SM
12:38
Mostly Cloudy
79°F / 26°C 68°F / 20°C 70% 30.09 in
(1019 mb)
SSW 8.1 mph
(SSW 13 kph)
- 10SM
12:16
Mostly Cloudy
77°F / 25°C 70°F / 21°C 79% 30.12 in
(1020 mb)
Calm - 10SM
11:53
Partly Cloudy
75°F / 24°C 68°F / 20°C 78% 30.12 in
(1020 mb)
Variable 4.6 mph
(Variable 7 kph)
- 10SM
11:23
Overcast
75°F / 24°C 68°F / 20°C 78% 30.12 in
(1020 mb)
SW 6.9 mph
(SW 11 kph)
- 10SM
10:53
Mostly Cloudy
75°F / 24°C 68°F / 20°C 78% 30.12 in
(1020 mb)
SW 5.8 mph
(SW 9 kph)
- 10SM
09:53
Partly Cloudy
72°F / 22°C 70°F / 21°C 94% 30.12 in
(1020 mb)
SW 8.1 mph
(SW 13 kph)
- 10SM
08:53
Mostly Cloudy
70°F / 21°C 68°F / 20°C 94% 30.12 in
(1020 mb)
SSE 5.8 mph
(SSE 9 kph)
- 7SM
08:43
Mostly Cloudy
Fog And Mist
70°F / 21°C 68°F / 20°C 94% 30.12 in
(1020 mb)
SW 5.8 mph
(SW 9 kph)
- 6SM
08:32
Mostly Cloudy
Fog And Mist
68°F / 20°C 66°F / 19°C 94% 30.12 in
(1020 mb)
SW 3.5 mph
(SW 6 kph)
- 5SM
07:53
Mostly Cloudy
Fog And Mist
66°F / 19°C 66°F / 19°C 100% 30.12 in
(1020 mb)
SW 3.5 mph
(SW 6 kph)
- 3SM
07:45
Overcast
Fog And Mist
66°F / 19°C 66°F / 19°C 100% 30.12 in
(1020 mb)
SSE 3.5 mph
(SSE 6 kph)
- 3SM
06:53
Overcast
Fog And Mist
66°F / 19°C 66°F / 19°C 100% 30.09 in
(1019 mb)
SSE 6.9 mph
(SSE 11 kph)
0.00 in
(0.00 mm)
3SM
06:48
Overcast
Fog And Mist
66°F / 19°C 66°F / 19°C 100% 30.09 in
(1019 mb)
SSE 5.8 mph
(SSE 9 kph)
0.00 in
(0.00 mm)
2 1/2SM
05:53
Overcast
Light Rain
66°F / 19°C 66°F / 19°C 100% 30.09 in
(1019 mb)
SSE 3.5 mph
(SSE 6 kph)
0.00 in
(0.00 mm)
5SM
04:53
Overcast
Fog And Mist
66°F / 19°C 64°F / 18°C 94% 30.09 in
(1019 mb)
S 4.6 mph
(S 7 kph)
0.00 in
(0.00 mm)
4SM
03:53
Mostly Cloudy
Light Rain
66°F / 19°C 66°F / 19°C 100% 30.06 in
(1018 mb)
SE 5.8 mph
(SE 9 kph)
0.05 in
(1.27 mm)
5SM
03:09
Overcast
Light Rain
66°F / 19°C 64°F / 18°C 94% 30.09 in
(1019 mb)
SSE 5.8 mph
(SSE 9 kph)
0.03 in
(0.76 mm)
4SM
02:53
Overcast
Heavy Rain
66°F / 19°C 66°F / 19°C 100% 30.09 in
(1019 mb)
S 5.8 mph
(S 9 kph)
0.20 in
(5.08 mm)
2 1/2SM
02:45
Overcast
Heavy Rain
66°F / 19°C 66°F / 19°C 100% 30.09 in
(1019 mb)
SW 5.8 mph
(SW 9 kph)
0.16 in
(4.06 mm)
1 3/4SM
02:38
Overcast
Thunder Storms
66°F / 19°C 66°F / 19°C 100% 30.09 in
(1019 mb)
SSW 10.4 mph
(SSW 17 kph)
0.11 in
(2.79 mm)
2SM
02:30
Overcast
Thunder Storms
66°F / 19°C 66°F / 19°C 100% 30.12 in
(1020 mb)
W 16.1 mph
(W 26 kph)
0.04 in
(1.02 mm)
1 3/4SM
02:27
Overcast
Thunder Storms
66°F / 19°C 66°F / 19°C 100% 30.09 in
(1019 mb)
WNW 8.1 mph
(WNW 13 kph)
0.04 in
(1.02 mm)
2SM
02:19
Overcast
Thunder Storms
66°F / 19°C 66°F / 19°C 100% 30.09 in
(1019 mb)
Calm 0.00 in
(0.00 mm)
6SM
01:53
Overcast
Fog And Mist
66°F / 19°C 64°F / 18°C 94% 30.09 in
(1019 mb)
SE 6.9 mph
(SE 11 kph)
- 6SM
00:53
Overcast
66°F / 19°C 64°F / 18°C 94% 30.09 in
(1019 mb)
Calm - 8SM
00:26
Overcast
Fog And Mist
66°F / 19°C 64°F / 18°C 94% 30.12 in
(1020 mb)
Calm - 4SM
Time Weather Temperature Dewpoint Humidity Pressure Winds Precip Visibility


Weather for websites

WeatherForYou.com, LLC is not responsible for any damages or problems caused by this service. Current weather conditions are obtained from the closest station including government and personal stations which may have varying degrees of accuracy. Weather forecasts are derived from the NOAA NDFD. Like all things, this site belongs to Jesus Christ... He just trusts us to maintain it. If you have any questions or comments email webmaster@weatherforyou.com

Copyright © 2015, WeatherForYou.com LLC. All rights reserved.